User: anonymous   Login
Location: Unspecified
(0.0000°N, 0.0000°E)
Time: 20:21:53
(UTC+00:00)
Language:

STARLINK-32454 - Orbit

View from above orbital plane
View from above orbital plane
View from above satellite
View from above satellite

Ground track
Ground track

The orbit is defined by the following mean orbital elements,

1 62142U          26145.19632258 +.00000000 +00000-0 +64624-3 0 00007
2 62142  43.0004  93.5622 0001245 266.6656  93.4053 15.27588348    09
Epoch (UTC): 25 May 2026 04:42:42
Eccentricity: 0.0001245
inclination: 43.0004°
perigee height: 482 km
apogee height: 484 km
right ascension of ascending node: 93.5622°
argument of perigee: 266.6656°
revolutions per day: 15.27588348
mean anomaly at epoch: 93.4053°

The dashed part of the orbit path shows where the satellite is in the earth's shadow,  

DLR